Location: Eaton
(41.3139°N, 82.0207°W)
Time: 13:12:29
(UTC+00:00)

Cosmos 724 - Pass Details

Date: 17 June 2021
Orbit: 849 x 945 km, 65.6° (Epoch: 26 July)

Event Time Altitude Azimuth Distance (km) Brightness Sun altitude
Rises 06:32:10 0° 324° (NW) 3,599 8.0 -23.7°
Reaches altitude 10° 06:34:47 10° 320° (NW) 2,641 7.2 -23.5°
Maximum altitude 06:40:46 56° 245° (WSW) 1,085 4.5 -23.2°
Enters shadow 06:41:43 50° 211° (SSW) 1,147 4.4 -23.1°
